Temperature
-7 -6 -6 -5 -3 -2 -2 -1 -1 0 2 5 7 8 9 9 10 10 10 11 11 12 12 12 12 13 13 13 13 13 13 13 13 13 13 13 13 13
-7 -7 -6 -5 -4 -3 -2 -1 -0 -0 1 3 5 7 8 8 9 9 10 10 11 11 12 12 12 12 12 13 13 13 13 13 13 13 12 12 12 12
-8 -7 -7 -6 -5 -4 -2 -1 -0 0 1 2 4 6 7 7 8 8 9 10 10 11 11 12 12 12 12 12 12 13 13 12 12 12 12 12 11 11
-8 -7 -7 -6 -5 -4 -3 -2 -1 0 1 1 3 4 6 6 7 8 8 9 9 10 11 11 12 12 12 12 12 12 12 12 12 12 11 11 11 11
-8 -8 -7 -6 -5 -4 -3 -2 -1 -1 0 1 2 3 5 6 6 7 7 8 9 9 10 11 11 12 12 12 12 12 12 12 12 11 11 10 10 10
-8 -8 -7 -6 -6 -5 -4 -3 -2 -1 -0 0 2 3 4 5 6 6 7 7 8 8 9 9 10 11 11 12 12 12 11 11 11 11 10 10 9 9
-8 -8 -7 -7 -6 -5 -4 -4 -3 -2 -1 -0 1 2 3 4 5 6 6 7 7 8 8 8 9 9 10 10 10 10 10 10 10 9 9 8 8 7
-8 -8 -8 -7 -7 -6 -6 -5 -4 -3 -3 -1 -0 1 2 3 4 5 5 6 6 7 7 8 8 8 8 9 9 9 9 8 8 7 6 6 6 6
-9 -9 -9 -8 -8 -7 -7 -6 -5 -5 -4 -3 -2 -0 1 2 3 4 5 6 6 6 6 6 6 6 7 7 7 7 7 6 6 5 5 5 4 4
-9 -9 -9 -9 -8 -8 -8 -7 -6 -6 -6 -5 -3 -2 -1 0 2 3 4 5 6 5 6 5 5 5 5 5 5 5 5 5 4 4 4 4 3 3
-9 -9 -9 -9 -9 -9 -9 -8 -7 -6 -6 -5 -4 -3 -2 -0 2 3 4 4 4 4 4 4 4 4 4 4 4 4 3 3 3 3 3 3 3 3
-10 -10 -10 -10 -10 -10 -10 -10 -9 -8 -7 -5 -4 -3 -2 -1 1 2 3 3 4 3 3 3 3 3 3 2 2 2 2 2 2 2 2 2 2 3
-11 -11 -11 -11 -11 -10 -11 -10 -10 -9 -8 -7 -6 -5 -4 -2 -1 0 1 2 2 2 2 3 3 2 2 1 1 2 2 2 2 2 2 2 2 2
-12 -12 -12 -11 -11 -11 -11 -11 -10 -10 -9 -8 -8 -7 -7 -6 -5 -3 -1 0 1 1 1 2 2 2 2 1 1 1 1 1 2 2 1 2 2 2
-13 -12 -12 -12 -12 -12 -12 -12 -11 -11 -10 -10 -10 -10 -9 -8 -7 -5 -3 -2 -1 -0 0 1 2 2 2 2 1 0 1 1 1 1 1 1 1 1
-13 -13 -13 -13 -13 -13 -13 -12 -12 -12 -12 -11 -11 -11 -10 -9 -8 -6 -5 -3 -2 -1 -1 -0 0 1 1 1 1 1 0 0 0 1 1 1 1 1
-13 -13 -13 -14 -14 -14 -14 -14 -13 -13 -12 -12 -11 -11 -10 -10 -9 -8 -7 -5 -4 -4 -3 -2 -1 -0 -0 -0 -0 -0 -0 -0 -0 0 0 0 0 0
-14 -14 -14 -15 -15 -15 -15 -15 -15 -14 -14 -13 -12 -12 -11 -11 -10 -10 -9 -7 -7 -7 -6 -5 -4 -2 -2 -2 -3 -2 -2 -2 -1 -1 -1 -1 -1 -1
-14 -14 -15 -15 -15 -15 -15 -15 -15 -15 -15 -14 -13 -13 -12 -11 -11 -10 -10 -9 -9 -9 -8 -7 -6 -5 -4 -5 -7 -6 -5 -4 -4 -3 -3 -2 -2 -2
-14 -14 -15 -15 -15 -15 -15 -15 -15 -15 -15 -15 -14 -14 -13 -12 -11 -11 -11 -10 -10 -10 -9 -9 -8 -7 -6 -7 -8 -8 -8 -7 -6 -5 -4 -4 -3 -3
-14 -14 -14 -15 -15 -15 -15 -15 -15 -15 -15 -15 -15 -15 -14 -14 -13 -12 -12 -11 -11 -10 -10 -10 -10 -9 -9 -8 -8 -9 -8 -8 -7 -6 -5 -5 -4 -4
-14 -14 -14 -14 -15 -15 -15 -15 -15 -15 -16 -15 -15 -15 -15 -15 -14 -14 -13 -13 -12 -11 -11 -11 -11 -10 -10 -9 -9 -9 -9 -8 -8 -7 -7 -6 -5 -5
-14 -14 -14 -14 -14 -15 -15 -15 -15 -15 -15 -15 -15 -15 -15 -15 -15 -14 -14 -14 -13 -13 -12 -12 -12 -11 -11 -11 -11 -10 -10 -10 -9 -8 -8 -7 -7 -7
Wind_Speed
10 11 11 11 11 12 12 12 12 12 11 9 6 5 4 4 9 9 8 14 16 17 17 17 20 23 26 28 29 32 32 31 30 29 28 27 25 23
9 11 13 11 12 11 10 11 12 13 12 7 6 6 5 3 8 9 10 13 17 19 19 18 19 21 24 26 28 31 32 32 31 31 31 29 27 26
11 12 14 14 12 11 10 9 10 10 13 11 9 8 7 5 3 4 6 6 9 17 19 19 19 20 22 25 27 30 31 32 33 33 33 31 30 28
11 12 14 12 14 12 10 10 8 8 9 10 8 7 6 4 3 4 4 5 5 12 17 18 19 20 21 23 26 28 30 32 32 31 32 32 31 30
10 12 13 14 13 12 12 10 7 7 6 7 8 6 5 4 3 3 4 3 4 7 11 14 16 18 20 21 23 27 30 31 31 32 33 34 33 31
9 10 12 13 13 13 10 9 8 6 6 6 7 6 5 5 4 4 3 3 4 4 6 8 11 14 18 21 23 25 27 29 31 33 33 33 32 30
9 11 13 16 18 15 12 11 10 7 5 4 5 5 5 4 5 4 5 5 4 4 7 7 8 9 11 20 25 30 32 33 34 34 33 32 30 28
10 12 14 15 19 22 23 22 20 14 9 6 4 4 4 4 4 5 6 7 5 4 8 8 8 10 8 12 26 33 35 36 36 35 34 32 30 27
11 11 13 17 18 15 18 22 21 25 22 12 8 7 5 4 4 6 9 10 6 8 10 9 7 10 8 18 30 33 35 35 35 33 32 31 28 25
11 11 13 15 18 18 16 15 16 17 20 14 13 12 12 9 5 4 5 7 7 6 8 9 7 8 9 13 26 30 32 33 32 31 30 28 26 24
13 14 14 14 25 26 18 16 16 16 20 24 24 23 26 26 16 1 6 12 12 5 4 6 7 7 8 8 17 28 29 30 30 29 28 27 25 21
10 13 21 22 26 26 16 15 16 15 16 18 20 23 21 23 26 13 3 8 11 6 3 5 7 6 6 6 9 15 22 26 27 26 24 22 20 16
10 10 13 25 27 27 22 16 19 16 13 15 15 16 16 16 18 17 14 7 7 5 2 4 5 5 6 5 5 8 12 14 17 18 18 17 16 15
10 8 13 24 25 27 21 24 26 20 12 13 14 15 15 15 14 15 16 15 14 11 8 6 5 6 7 6 5 5 8 10 12 10 12 15 16 15
10 18 20 23 22 19 25 27 21 14 13 14 14 14 13 13 13 12 13 14 19 21 19 14 10 8 7 8 7 6 5 5 7 6 7 7 7 6
10 15 20 21 19 20 20 17 14 14 13 13 12 12 12 13 13 13 12 11 13 16 20 23 16 12 10 11 10 9 7 6 5 5 5 6 7 8
10 8 9 11 12 12 12 13 13 13 13 12 12 12 12 13 13 12 11 12 13 13 13 13 19 22 17 13 10 10 10 9 6 5 5 4 3 5
12 8 10 11 11 11 11 11 11 12 12 12 12 11 11 11 11 10 11 12 13 12 11 9 7 9 10 14 15 10 9 8 6 5 4 3 3 4
8 6 6 7 7 8 8 7 8 9 8 8 9 9 9 9 10 10 10 11 11 11 11 10 9 7 9 7 8 13 7 6 4 4 4 3 2 1
4 4 5 5 5 5 6 6 5 6 6 6 7 7 8 8 8 8 9 10 10 10 11 11 11 9 7 6 5 4 10 6 4 4 3 3 2 5
4 4 4 4 4 4 4 5 5 5 5 5 5 6 6 6 7 8 8 13 11 9 10 8 7 10 4 5 7 4 4 8 5 3 2 2 2 3
4 4 4 4 3 3 3 3 4 4 4 4 4 4 5 5 5 6 6 6 6 6 6 5 6 7 6 7 6 4 3 3 4 1 2 3 1 1
4 4 4 4 3 2 2 3 4 3 3 3 3 3 3 4 4 4 4 5 5 5 5 5 5 5 5 4 4 3 2 2 2 3 3 3 5 8
Wind_Direction
314 315 311 304 292 274 264 253 251 264 274 279 284 276 236 194 195 194 198 205 210 218 220 216 211 207 205 202 199 195 193 190 187 185 183 180 173 163
319 321 317 309 304 292 273 260 246 247 259 273 278 306 319 263 200 190 202 207 210 215 220 219 215 212 207 203 199 195 191 187 185 184 184 176 163 150
323 323 319 315 312 305 292 274 257 244 250 262 271 282 298 298 253 206 203 202 207 213 218 220 217 214 210 204 198 194 190 185 183 184 181 166 153 146
319 321 321 320 316 309 301 288 275 260 253 258 263 267 268 271 261 230 212 198 193 205 210 215 215 213 209 204 199 192 184 179 176 175 165 153 148 144
312 320 322 321 320 316 310 303 292 278 266 262 263 261 259 252 249 237 205 181 172 182 194 203 206 204 201 195 190 182 174 168 162 155 148 145 142 140
315 326 328 327 329 329 326 326 317 300 284 266 257 253 249 243 217 205 185 167 152 138 131 139 153 162 169 167 163 158 152 146 142 138 136 134 133 132
337 344 343 349 357 358 1 2 359 351 334 301 271 253 239 222 212 185 178 150 129 132 122 115 115 117 127 130 129 129 127 126 125 124 121 119 117 117
5 3 357 3 14 10 15 18 19 20 10 355 317 278 260 240 220 193 171 159 155 151 126 109 105 108 108 115 123 121 119 118 117 116 115 113 111 111
18 17 16 12 25 15 14 18 18 23 27 23 12 3 349 323 277 211 189 169 147 149 132 113 99 101 100 117 119 118 119 118 118 118 118 117 116 115
24 27 24 16 27 25 16 19 19 19 20 24 23 15 9 356 312 253 189 140 114 120 129 117 102 92 90 108 118 119 120 121 122 123 123 123 122 120
25 25 28 24 28 29 21 19 21 16 15 21 25 25 22 20 18 24 168 156 144 112 66 107 113 92 68 64 102 114 117 120 122 124 126 125 122 117
26 17 25 30 29 32 26 21 25 17 13 14 19 20 21 22 25 23 8 155 143 120 52 111 124 111 85 44 55 90 106 112 116 119 121 122 122 119
31 20 22 30 31 33 33 28 30 26 19 20 21 20 20 23 24 24 27 51 107 97 61 106 113 93 105 101 55 58 85 98 101 104 106 107 112 124
28 22 26 32 31 31 33 31 31 29 26 26 27 24 20 18 19 26 35 46 55 64 49 69 101 118 121 111 105 80 74 84 96 97 95 96 94 98
22 28 30 33 31 29 29 30 29 29 27 30 29 25 20 17 18 23 29 46 51 50 48 57 87 101 103 123 126 127 102 83 91 99 98 94 92 94
25 24 27 29 32 29 29 28 26 29 30 28 27 24 23 25 27 25 31 38 55 52 47 52 62 82 98 103 114 116 113 120 111 97 96 95 98 99
29 20 21 23 25 25 25 26 25 24 27 25 25 27 29 32 33 32 37 49 58 60 56 57 64 71 71 81 98 101 103 100 95 85 93 98 100 124
33 26 27 25 23 21 21 22 23 25 24 26 26 27 29 32 34 36 43 50 56 52 49 47 67 79 77 58 50 92 97 100 94 79 75 93 78 62
29 19 18 18 17 15 14 14 18 19 18 22 24 22 25 31 38 39 42 50 55 52 45 38 38 68 93 94 49 47 78 86 88 81 69 72 75 346
9 10 9 7 8 7 6 6 6 13 14 17 20 20 23 30 37 39 43 49 54 55 52 46 44 50 70 92 103 70 58 66 69 71 53 34 341 311
348 351 351 354 357 358 358 359 359 4 13 15 22 21 22 29 35 35 42 55 57 55 56 46 30 39 44 69 88 80 54 67 76 88 71 36 7 354
325 329 329 332 336 341 344 349 353 358 11 21 21 22 23 30 35 38 41 47 49 52 56 45 29 41 52 74 82 77 56 22 11 343 222 212 152 59
303 302 303 308 313 318 332 341 343 342 357 10 17 24 26 30 31 36 38 45 50 46 46 45 40 47 52 64 71 62 42 23 19 14 343 312 275 271
Height
1431 1427 1424 1421 1418 1417 1417 1417 1418 1415 1410 1409 1413 1416 1419 1422 1426 1429 1433 1437 1441 1446 1451 1456 1462 1468 1474 1480 1486 1492 1497 1503 1509 1515 1520 1525 1529 1533
1427 1423 1419 1415 1412 1410 1409 1409 1409 1410 1408 1405 1408 1411 1414 1417 1420 1423 1427 1431 1434 1439 1444 1449 1454 1460 1467 1473 1479 1485 1491 1497 1503 1509 1514 1519 1524 1528
1424 1419 1415 1411 1407 1404 1401 1401 1401 1402 1402 1401 1403 1405 1408 1411 1414 1418 1421 1425 1428 1432 1437 1442 1447 1453 1459 1466 1472 1478 1484 1491 1496 1503 1508 1513 1518 1522
1421 1416 1411 1407 1403 1399 1396 1394 1393 1394 1395 1396 1397 1399 1402 1406 1409 1413 1416 1419 1422 1426 1430 1435 1440 1446 1452 1458 1465 1471 1478 1484 1490 1496 1502 1506 1511 1517
1418 1413 1408 1404 1399 1395 1391 1388 1387 1387 1388 1389 1391 1393 1397 1401 1405 1408 1411 1414 1417 1420 1424 1428 1433 1439 1445 1451 1457 1464 1471 1477 1483 1490 1495 1500 1505 1511
1416 1411 1406 1402 1397 1392 1388 1385 1382 1381 1381 1383 1385 1388 1391 1395 1399 1403 1406 1410 1413 1416 1419 1422 1427 1432 1438 1444 1450 1457 1463 1471 1477 1483 1488 1493 1499 1506
1414 1410 1405 1401 1396 1391 1387 1383 1379 1377 1376 1377 1379 1382 1385 1389 1393 1397 1402 1406 1410 1412 1415 1419 1423 1427 1432 1439 1445 1451 1458 1464 1470 1476 1482 1488 1495 1502
1414 1410 1405 1400 1395 1389 1386 1382 1379 1376 1373 1373 1374 1377 1380 1384 1388 1392 1397 1401 1405 1409 1411 1416 1421 1426 1431 1436 1442 1448 1454 1460 1466 1472 1479 1486 1494 1500
1415 1411 1407 1402 1396 1391 1386 1382 1378 1375 1373 1372 1371 1373 1375 1378 1382 1387 1391 1395 1400 1405 1409 1414 1419 1424 1430 1436 1441 1446 1452 1458 1465 1472 1479 1486 1493 1499
1417 1414 1410 1405 1400 1394 1388 1383 1379 1375 1373 1371 1370 1370 1371 1372 1376 1381 1386 1390 1395 1401 1405 1411 1418 1424 1431 1438 1443 1448 1453 1460 1466 1473 1481 1487 1493 1499
1419 1417 1413 1409 1404 1398 1392 1387 1382 1379 1376 1373 1371 1368 1367 1368 1371 1377 1381 1384 1388 1394 1400 1406 1415 1422 1430 1437 1444 1450 1456 1462 1468 1475 1482 1488 1493 1499
1422 1420 1417 1413 1408 1403 1397 1392 1387 1383 1379 1375 1372 1369 1367 1367 1369 1372 1375 1379 1382 1389 1396 1403 1411 1419 1429 1437 1444 1451 1458 1464 1470 1476 1482 1487 1492 1498
1426 1424 1421 1418 1413 1408 1403 1398 1395 1390 1385 1380 1376 1373 1369 1368 1368 1369 1372 1376 1378 1384 1392 1399 1407 1415 1423 1435 1444 1451 1457 1463 1470 1475 1482 1487 1491 1496
1432 1429 1426 1422 1417 1413 1408 1404 1400 1395 1391 1387 1382 1379 1376 1374 1373 1372 1373 1375 1378 1384 1392 1399 1406 1414 1421 1431 1441 1450 1457 1464 1470 1476 1481 1485 1490 1494
1436 1434 1430 1425 1420 1416 1413 1409 1404 1401 1397 1393 1390 1388 1386 1384 1381 1379 1378 1379 1381 1387 1395 1403 1409 1416 1424 1430 1439 1447 1454 1462 1468 1474 1479 1483 1487 1491
1439 1436 1432 1428 1425 1421 1417 1413 1410 1408 1405 1402 1400 1398 1396 1392 1389 1387 1386 1386 1388 1393 1399 1406 1413 1419 1426 1433 1439 1446 1453 1459 1466 1471 1476 1480 1484 1488
1442 1438 1434 1431 1428 1425 1422 1419 1417 1414 1411 1409 1407 1405 1403 1401 1399 1397 1396 1395 1395 1398 1403 1409 1414 1420 1426 1433 1439 1446 1452 1458 1463 1468 1473 1477 1481 1484
1446 1442 1439 1436 1433 1431 1428 1425 1423 1420 1418 1416 1414 1412 1410 1409 1408 1407 1405 1403 1403 1405 1408 1413 1417 1422 1427 1434 1441 1445 1450 1456 1461 1465 1470 1474 1477 1480
1450 1447 1444 1441 1439 1436 1433 1430 1428 1426 1424 1421 1419 1417 1416 1415 1414 1413 1412 1412 1412 1414 1416 1419 1422 1425 1428 1434 1443 1447 1450 1454 1458 1463 1467 1470 1474 1476
1453 1451 1448 1445 1443 1440 1437 1434 1432 1430 1428 1425 1423 1422 1421 1420 1419 1418 1418 1419 1419 1421 1422 1425 1427 1430 1433 1437 1442 1447 1452 1455 1458 1461 1465 1468 1471 1473
1455 1453 1450 1448 1445 1442 1440 1437 1435 1433 1431 1429 1427 1426 1425 1424 1423 1423 1423 1424 1425 1426 1427 1430 1432 1435 1437 1441 1444 1448 1452 1455 1457 1460 1463 1465 1467 1469
1455 1453 1450 1448 1446 1444 1441 1439 1437 1435 1433 1432 1431 1430 1429 1428 1428 1428 1428 1429 1429 1431 1432 1434 1436 1438 1441 1443 1445 1448 1451 1454 1456 1458 1461 1462 1463 1465
1453 1451 1449 1447 1445 1443 1442 1440 1438 1436 1435 1434 1433 1432 1431 1431 1431 1431 1432 1432 1433 1434 1435 1437 1439 1441 1442 1444 1446 1448 1451 1453 1455 1457 1459 1459 1461 1462